AirNav   Air Wisconsin Up To $57,000 Bonus
 
 1058 users online  

6P7 McVille Airport
Freeport, Pennsylvania, USA

GOING TO FREEPORT?


FAA INFORMATION EFFECTIVE 02 DECEMBER 2021

Location

FAA Identifier: 6P7
Lat/Long: 40-44-04.4250N 079-35-44.3250W
40-44.073750N 079-35.738750W
40.7345625,-79.5956458
(estimated)
Elevation: 1104.5 ft. / 337 m (estimated)
Variation: 10W (2020)
From city: 7 miles NE of FREEPORT, PA
Time zone: UTC -5 (UTC -4 during Daylight Saving Time)
Zip code: 16229

Airport Operations

Airport use: Open to the public
Activation date: 12/2014
Control tower: no
ARTCC: CLEVELAND CENTER
FSS: ALTOONA FLIGHT SERVICE STATION
NOTAMs facility: AOO (NOTAM-D service available)
Attendance: 0800-1700
Wind indicator: lighted
Segmented circle: yes
Lights: ACTIVATE MIRLS RWY 14/32 - 122.8.
Beacon: white-green (lighted land airport)
Operates sunset to sunrise.

Airport Communications

CTAF/UNICOM: 123.0
JOHNSTOWN APPROACH: 121.2
JOHNSTOWN DEPARTURE: 121.2
WX AWOS-3PT at BTP (16 nm W): 121.450 (724-586-6434)
  • APCH/DEP SVC PRVDD BY CLEVELAND ARTCC ON FREQS 124.4/327.1 (ALTOONA RCAG) WHEN JOHNSTOWN (JST) APCH/DEP CLSD.

Nearby radio navigation aids

VOR radial/distance  VOR name  Freq  Var
EWCr109/28.5ELLWOOD CITY VOR/DME115.8008W
AGCr046/34.1ALLEGHENY VOR/DME110.0009W

Airport Services

Fuel available: 100LL MOGAS
MOGAS:MOGAS IS 89 OCTANE
Parking: tiedowns
Airframe service: MAJOR
Powerplant service: MAJOR

Runway Information

Runway 14/32

Dimensions: 2800 x 60 ft. / 853 x 18 m
Surface: asphalt, in good condition
Runway edge lights: medium intensity
RUNWAY 14  RUNWAY 32
Latitude: 40-44.238000N40-43.909333N
Longitude: 079-35.952000W079-35.526833W
Elevation: 1104.5 ft.1104.5 ft.
Traffic pattern: leftleft
Runway heading: 145 magnetic, 135 true325 magnetic, 315 true
Markings: nonprecision, in good conditionnonprecision, in good condition
Runway end identifier lights: nono
Touchdown point: yes, no lightsyes, no lights
Obstructions: 27 ft. trees, 533 ft. from runway, 234 ft. left of centerline, 12:1 slope to clearnone

Airport Ownership and Management from official FAA records

Ownership: Privately-owned
Owner: THOMAS C & THEODORE J KIJOWSKI
444 FORDCITY RD
FREEPORT, PA 16229
Phone 724-294-2359
Manager: THOMAS C. KIJOWSKI
444 FORDCITY RD
FREEPORT, PA 16229
Phone 724-335-0390
412-418-3703.

Airport Operational Statistics

Aircraft based on the field: 19
Single engine airplanes: 19
    
Aircraft operations: avg 44/week *
65% local general aviation
35% transient general aviation
* for 12-month period ending 10 September 2020

Additional Remarks

FOR CD CTC JOHNSTOWN APCH AT 814-532-5960, WHEN APCH CLSD CTC CLEVELAND ARTCC AT 440-774-0234.

Instrument Procedures

NOTE: All procedures below are presented as PDF files. If you need a reader for these files, you should download the free Adobe Reader.

NOT FOR NAVIGATION. Please procure official charts for flight.
FAA instrument procedures published for use from 02 December 2021 at 0901Z to 30 December 2021 at 0900Z.

 
IAPs - Instrument Approach Procedures
RNAV (GPS) RWY 14   download (189KB)
RNAV (GPS) RWY 32   download (199KB)
NOTE: Special Take-Off Minimums/Departure Procedures apply   download (289KB)

Other nearby airports with instrument procedures:

KBTP - Pittsburgh/Butler Regional Airport (16 nm W)
KIDI - Indiana County Airport (Jimmy Stewart Field) (23 nm E)
KPJC - Zelienople Municipal Airport (26 nm W)
KAGC - Allegheny County Airport (27 nm SW)
KLBE - Arnold Palmer Regional Airport (29 nm S)
 
Loc | Ops | Rwys | IFR | FBO | Links
Com | Nav | Svcs | Stats | Notes
Aerial photo
WARNING: Photo may not be current or correct
Aerial photo of 6P7 (McVille Airport)
Photo taken 22-Nov-2015
looking southwest.

Do you have a better or more recent aerial photo of McVille Airport that you would like to share? If so, please send us your photo.

 
Airport distance calculator
Flying to McVille Airport? Find the distance to fly.

From to 6P7

Sunrise and sunset
Times for 06-Dec-2021
 Local
(UTC-5)
 Zulu
(UTC)
Morning civil twilight06:5811:58
Sunrise07:2912:29
Sunset16:5021:50
Evening civil twilight17:2122:21

Current date and time
Zulu (UTC)  07-Dec-2021 02:19:39
Local (UTC-5)  06-Dec-2021 21:19:39
 
METAR
KBTP 
16nm W 
070156Z AUTO 25012G21KT 9SM UP OVC042 M01/M06 A3005 RMK AO2 UPB18SNB41E54 SLP188 P0000 T10061061 FZRANO
KIDI 
24nm E 
070155Z AUTO 28011G22KT 10SM OVC043 M00/M07 A3004 RMK A01
KPJC 
26nm W 
070155Z AUTO 25010G21KT 10SM SCT045 OVC049 00/M08 A3007 RMK AO2
KAGC 
27nm SW 
070153Z AUTO 27015G23KT 10SM OVC043 00/M08 A3006 RMK AO2 SLP190 T00001083
KLBE 
29nm S 
070147Z 25013G22KT 10SM BKN044 00/M07 A3006
TAF
KAGC 
27nm SW 
062201Z 0622/0718 30012G25KT P6SM BKN030 FM062300 29012G25KT P6SM BKN035 FM071000 28011G18KT P6SM BKN035 FM071500 25005KT P6SM OVC100
KLBE 
29nm S 
062101Z 0621/0718 26015G28KT P6SM OVC025 FM062200 27015G26KT P6SM OVC035 FM070500 27009KT P6SM BKN040 FM071500 26006KT P6SM BKN050
KPIT 
34nm SW 
062056Z 0621/0724 26014G30KT P6SM OVC050 TEMPO 0621/0622 BKN025 FM070000 27010G22KT P6SM BKN040 FM071000 28011G18KT P6SM BKN035 FM071500 25005KT P6SM OVC100
NOTAMs
Click for the latest NOTAMs
NOTAMs are issued by the DoD/FAA and will open in a separate window not controlled by AirNav.

 

 
 

FBO, Fuel Providers, and Aircraft Ground Support

  
 Business Name 
 
 Contact 
 
 Services / Description 
 
Fuel Prices
 
Comments
  
McVille Airport 724-294-2359
no information available

If you are affiliated with McVille Airport and would like to show here your services, contact info, web link, logo, and more, click here
100LL Mogas
FS --- $4.30 
SS $5.10 --- 
 Updated 30-Nov-2021
 
   write
FS=Full service
SS=Self service
Update Fuel Prices
 

Would you like to see your business listed on this page?

 If your business provides an interesting product or service to pilots, flight crews, aircraft, or users of the McVille Airport, you should consider listing it here.  To start the listing process, click on the button below
 
Add a business
 

Other Pages about McVille Airport

Update a link
 
Copyright © AirNav, LLC. All rights reserved. Privacy Policy  Contact